Regional Weather Roundup
Issued by NWS Cleveland, OH

Home | Current Version | Previous Version | Text Only | Print | Product List | Glossary Off
Versions: 1 2 3 4 5 6 7 8 9 10 11 12 13 14 15 16 17 18 19 20 21 22 23 24 25 26 27 28 29 30 31 32 33 34 35 36 37 38 39 40 41 42 43 44 45 46 47 48 49 50

000
ASUS41 KCLE 191312
RWRCLE
OHIO REGIONAL WEATHER ROUNDUP
NATIONAL WEATHER SERVICE WILMINGTON, OH
800 AM EST FRI JAN 19 2018

NOTE: "FAIR" INDICATES FEW OR NO CLOUDS BELOW 12,000 FEET WITH NO
SIGNIFICANT WEATHER AND/OR OBSTRUCTIONS TO VISIBILITY.

OHZ001>008-015>018-024>027-034-035-043-044-191400-
   NORTHWEST OHIO

CITY           SKY/WX    TMP DP  RH WIND       PRES   REMARKS
DEFIANCE       FAIR      21  12  68 SW12      30.02S WCI   9
FINDLAY        FAIR      24  12  60 SW17      30.02F WCI  11
TOLEDO EXPRESS FAIR      24  15  68 SW13      29.99S WCI  12
TOLEDO EXEC    FAIR      23  14  68 SW14      30.01S WCI  11
LIMA           FAIR      22  13  68 S14G23    30.04F WCI   9
$$

OHZ009>014-019>023-028>033-038-089-191400-
   NORTHEAST OHIO

CITY           SKY/WX    TMP DP  RH WIND       PRES   REMARKS
CLE-HOPKINS    FAIR      23  12  62 S9        30.06F WCI  13
CLE-LAKEFRONT  FAIR      25  12  58 S14       30.04R WCI  13
CUY CO. ARPT   PTCLDY    25  14  63 S12G17    30.04S WCI  14
LORAIN-ELYRIA  FAIR      23  10  57 SW12      30.04S WCI  12
ASHTABULA      FAIR      20  11  68 S12       30.03R WCI   8
AKRON-CANTON   FAIR      19   9  65 S14       30.06F WCI   6
WOOSTER        FAIR      19  11  70 SW13      30.06F WCI   6
MANSFIELD      FAIR      22  12  65 SW16G25   30.03F WCI   8
YOUNGSTOWN     FAIR      20  10  65 S10       30.04F WCI   9
$$

OHZ042-051>053-060>062-070>072-077>081-191400-
  SOUTHWEST OHIO

CITY           SKY/WX    TMP DP  RH WIND       PRES   REMARKS
CINC-COVINGTON FAIR      21  12  68 S10       30.16R WCI  10
CINC-LUNKEN    FAIR      21  12  68 S7        30.21S WCI  12
HAMILTON       FAIR      21  12  68 S5        30.18S WCI  15
DAYTON         FAIR      20  12  71 S14       30.12R WCI   7
WRIGHT-PAT AFB FAIR      19   6  57 S13       30.13S WCI   6
DAYTON GENERAL FAIR      20  11  68 SW7       30.14R WCI  11
WILMINGTON     FAIR      19  11  70 SW13      30.14S WCI   6
$$

OHZ036-037-039>041-045>050-054>059-063>069-073>076-082>088-191400-
  CENTRAL AND SOUTHEAST OHIO

CITY           SKY/WX    TMP DP  RH WIND       PRES   REMARKS
COLUMBUS       FAIR      18  10  71 S5        30.15S WCI  11
OSU AIRPORT    FAIR      19  11  70 S8        30.13S WCI   9
BOLTON FIELD   CLEAR     19  10  68 SW9       30.15S WCI   9
RICKENBACK AFB FAIR      19  10  70 S10       30.17R WCI   7
NEWARK         FAIR      20   9  62 S6        30.14S WCI  12
MARION         FAIR      18  10  71 S13       30.08F WCI   5
LANCASTER      FAIR      20  10  65 S8        30.16S WCI  10
ZANESVILLE     FAIR      17   8  67 SW3       30.17R
NEW PHILLY     FAIR      19   9  65 S3        30.14R
$$



USA.gov is the U.S. government's official web portal to all federal, state and local government web resources and services.